Simultaneous Nadir Overpasses (SNOs) Predictions

Prediction of SNOs between AQUA and NOAA-19 Satellite Orbit:

Table of predicted SNOs for the next 14.0 days since TLE Epoch: 11/1/2019
Index Date (AQUA) Time (AQUA) Lat,Lon (AQUA) SZA (AQUA ) Date (NOAA-19) Time (NOAA-19) Lat,Lon (NOAA-19) SZA (NOAA-19 ) Distance(km) Time Diff (sec)
1 11/02/2019 07:49:33 -80.19,-149.60 84.06 11/02/2019 07:49:49 -80.17,-149.67 84.07 2.21 16
2 11/04/2019 13:23:15 80.16, -52.78 96.60 11/04/2019 13:23:05 80.18, -52.75 96.62 2.45 10
3 11/06/2019 18:56:58 -80.15, 43.91 82.76 11/06/2019 18:56:33 -80.17, 43.85 82.72 3.28 25
4 11/06/2019 19:46:25 80.17,-148.69 97.30 11/06/2019 19:47:27 80.19,-148.59 97.29 2.71 62
5 11/09/2019 00:30:41 80.16, 140.37 97.92 11/09/2019 00:29:50 80.17, 140.50 97.94 2.46 51
6 11/09/2019 01:20:08 -80.16, -52.03 82.06 11/09/2019 01:20:55 -80.18, -52.07 82.06 1.92 47
7 11/11/2019 06:04:24 -80.15,-123.00 81.46 11/11/2019 06:03:18 -80.15,-123.06 81.44 1.32 66
8 11/11/2019 06:53:51 80.18, 44.40 98.60 11/11/2019 06:54:13 80.15, 44.32 98.58 3.21 22
9 11/13/2019 12:27:34 -80.18, 140.99 80.80 11/13/2019 12:27:40 -80.15, 140.98 80.83 3.07 6
10 11/15/2019 18:01:15 80.13,-122.04 99.72 11/15/2019 18:00:57 80.16,-122.13 99.76 3.29 18




NCC Satellite Simultaneous Nadir Overpasses (SNOs) Prediction Service
